Theta_e
291 287 284 285 283 286 285 286 288 285 286 285 283 284 283 282 284 286 287 290 290 289 287 289 288 287 288 289 290 296 309 311 317 320 319 320 321 321 322 322 322 321 321 321 320 320 319 320 322 325 328 331 332 332 333 333 332 332 331 331 330 331 332 331 330 329 329 327 327 327 327 326 327 328 328 327 327 327 328 330 330 331 331 330 330 330
293 286 287 286 287 288 289 288 287 287 288 287 286 283 283 282 283 287 288 289 290 290 285 287 288 289 290 290 290 293 307 311 313 318 319 319 321 322 322 322 322 323 321 320 318 318 320 322 325 327 328 330 329 331 332 331 331 331 331 330 330 331 331 331 330 330 329 329 328 327 326 326 326 327 325 324 325 326 329 329 329 330 330 330 330 330
285 286 287 288 289 290 289 288 288 288 287 286 284 283 282 283 283 287 288 289 291 290 287 288 288 290 290 290 290 293 306 312 315 320 320 320 320 321 322 322 322 321 320 318 317 318 320 322 326 327 328 330 330 330 331 331 331 330 330 329 329 330 330 330 330 329 328 328 328 327 325 326 324 324 324 325 326 329 328 328 329 330 330 329 328 329
285 286 288 289 289 289 288 288 287 287 287 284 284 283 282 283 284 281 285 290 292 291 289 289 288 289 287 289 294 295 298 302 308 318 320 321 320 320 321 322 322 321 320 318 317 318 321 322 325 327 328 329 330 330 330 330 330 330 329 328 329 329 329 329 330 328 327 327 325 324 324 323 322 322 325 325 325 326 327 327 329 329 329 329 329 329
287 289 289 288 288 289 288 286 286 284 283 283 285 283 283 284 284 284 285 288 290 290 291 288 287 282 284 291 296 300 303 304 309 314 318 320 321 321 321 322 323 321 321 318 317 319 321 321 323 326 328 329 328 329 329 330 329 329 328 328 329 328 328 328 329 327 326 325 323 323 323 325 324 324 324 324 323 325 327 326 327 327 328 329 329 329
287 291 289 288 287 288 287 286 285 286 281 281 284 287 286 286 286 285 286 287 284 283 286 288 279 277 281 290 297 302 300 302 306 313 316 318 320 321 320 320 320 320 318 317 319 319 321 321 325 327 327 327 328 328 330 331 330 329 328 328 328 327 327 327 326 326 325 324 322 322 322 321 320 320 321 322 323 325 325 325 323 327 327 327 326 326
289 292 292 289 287 286 286 285 284 287 282 281 283 287 288 288 286 286 285 286 280 281 287 289 282 277 279 293 300 304 304 302 306 311 315 317 318 319 320 319 318 318 317 318 320 320 320 322 324 326 326 327 327 328 330 331 330 329 328 328 327 326 326 326 326 325 324 322 322 322 322 322 322 320 317 319 322 324 319 321 323 323 322 323 324 322
289 289 289 288 287 286 284 283 285 287 283 280 283 287 288 286 286 286 287 285 282 285 288 286 281 280 278 285 302 304 301 302 306 309 313 315 317 318 319 318 317 316 318 318 318 320 321 322 324 324 326 327 328 329 330 330 329 328 327 327 326 326 326 325 325 324 324 322 321 320 320 321 321 321 319 320 319 319 320 320 319 318 316 317 318 319
289 287 287 286 286 283 284 286 286 288 285 284 286 289 287 288 288 287 287 284 283 283 282 280 287 281 277 284 298 303 298 299 302 307 310 314 316 317 317 317 315 314 317 318 318 319 321 322 324 325 326 328 328 329 329 329 329 328 327 327 326 325 324 323 324 323 322 323 321 321 321 320 320 320 319 319 319 319 320 317 315 316 314 314 314 316
289 289 289 289 286 284 286 286 289 289 285 289 289 291 289 289 289 288 284 285 283 281 277 282 283 281 277 281 291 300 301 300 300 304 309 313 315 315 315 315 314 314 316 319 320 321 322 324 325 326 327 327 328 329 329 329 329 328 327 326 325 324 324 323 323 322 321 321 321 320 320 319 318 319 317 317 317 317 317 316 313 313 313 313 313 313
291 300 295 288 286 288 288 288 290 290 291 290 291 289 286 283 283 284 282 280 280 275 279 284 283 283 278 279 290 295 297 300 301 304 308 312 315 315 314 314 314 314 316 318 319 321 323 325 325 326 326 327 328 328 328 328 329 328 327 326 324 324 323 322 321 321 320 319 320 320 320 319 317 316 315 315 315 315 315 314 312 312 312 312 312 314
289 290 290 290 294 291 290 289 290 292 292 292 288 285 283 285 281 281 278 278 275 270 278 279 282 282 279 281 285 290 295 296 304 305 306 309 313 314 313 314 315 316 317 318 319 320 323 323 324 325 325 326 326 326 327 328 328 328 327 326 323 322 322 320 319 319 319 319 319 319 319 318 318 316 316 315 314 314 314 312 311 310 311 310 311 312
286 288 287 289 300 293 289 288 284 288 289 288 284 285 282 276 274 273 276 275 273 276 280 282 283 283 279 283 292 298 299 301 302 307 308 310 312 313 311 313 315 318 319 318 318 319 321 321 322 323 323 325 325 325 327 328 328 328 327 325 323 322 320 319 318 318 318 318 318 318 318 318 318 317 316 315 314 313 314 312 311 311 311 310 312 311
284 285 287 287 290 294 291 285 282 285 285 285 285 281 278 275 270 266 268 270 275 279 281 283 285 282 283 289 292 298 301 303 303 304 308 311 312 311 312 313 314 314 315 317 318 319 320 321 322 322 323 325 325 326 327 327 328 328 327 326 324 321 319 318 317 317 317 317 317 317 318 318 318 316 315 314 314 313 313 312 312 311 311 311 312 311
275 279 283 287 286 290 291 290 289 286 285 287 286 286 283 277 274 270 274 271 276 278 280 283 283 279 283 286 299 300 303 305 304 306 308 310 310 311 312 313 314 315 317 320 319 319 320 321 322 322 323 324 325 325 326 327 327 327 326 326 323 320 318 317 316 317 317 317 317 317 318 319 318 317 315 314 315 313 312 312 312 311 310 311 310 311
281 278 284 288 290 290 289 292 290 286 286 285 284 285 283 281 278 279 274 278 277 278 280 281 279 283 286 296 299 303 305 306 307 307 308 309 311 311 311 311 312 315 318 320 319 319 320 321 322 322 323 324 325 325 325 325 326 326 326 325 322 320 318 317 317 316 317 317 317 317 317 318 318 318 315 314 314 313 313 312 312 310 310 311 310 311
280 280 285 288 289 289 290 291 291 290 282 285 285 283 285 287 284 276 277 279 276 274 276 277 283 284 289 295 298 301 303 306 307 307 307 308 310 311 311 313 315 317 319 320 319 319 319 321 321 322 323 323 324 325 324 325 326 326 325 323 321 319 315 315 315 316 316 316 316 316 318 317 317 316 314 314 313 312 312 312 311 311 310 310 310 311
278 280 285 287 289 291 290 290 291 290 289 285 282 284 288 289 287 282 275 272 270 271 272 280 282 281 282 283 296 299 300 303 306 306 307 307 308 309 311 312 313 314 317 319 320 320 320 321 321 322 323 324 323 324 325 325 326 325 323 322 321 319 316 314 315 315 315 315 316 316 316 317 317 315 314 313 312 312 312 311 311 312 312 311 312 312
286 282 283 285 288 289 291 291 287 289 290 289 283 289 286 278 280 279 278 271 272 271 270 277 281 280 280 284 293 296 297 298 303 306 307 307 308 308 310 310 311 313 314 315 315 318 320 320 320 321 322 324 324 324 325 326 326 325 324 322 321 318 317 316 316 317 316 316 317 317 317 317 316 315 314 313 313 312 311 311 311 312 311 311 312 313
287 281 281 285 286 289 288 285 282 282 289 290 291 289 290 283 280 279 277 278 279 271 270 275 279 277 287 291 296 297 299 300 303 305 306 307 308 309 309 310 311 312 312 313 313 314 317 318 319 320 321 322 323 323 324 325 325 324 323 320 318 318 319 318 317 317 317 316 317 316 316 316 317 316 314 313 313 312 312 312 312 311 310 311 313 311
283 284 275 281 286 288 285 287 284 280 283 285 286 283 286 284 285 285 283 281 279 271 268 271 272 277 284 298 299 299 301 301 303 304 305 307 308 308 308 309 310 312 312 312 313 314 315 316 317 317 318 319 321 324 324 324 324 322 319 318 319 319 319 318 317 317 317 317 316 317 316 316 316 315 314 313 313 312 312 312 312 311 311 311 311 311
282 282 279 280 282 282 283 287 290 287 283 283 284 281 284 283 283 281 276 281 279 278 271 273 271 277 288 303 302 301 303 303 304 303 303 305 307 307 307 307 309 310 310 311 311 311 312 313 313 315 317 319 319 320 322 322 320 318 318 319 319 319 319 317 317 318 317 316 316 316 316 315 316 315 314 313 313 312 312 312 311 311 312 311 311 311
287 282 283 281 283 285 287 290 291 293 290 286 286 285 284 281 282 277 274 278 280 281 280 279 275 278 294 303 303 304 304 304 304 305 304 305 305 306 308 308 309 310 311 311 312 312 312 313 313 314 316 316 317 318 320 319 318 317 318 318 318 318 317 318 318 318 317 316 316 316 316 316 316 315 314 313 313 312 312 312 312 313 311 311 312 312
302 279 280 280 280 283 286 289 289 292 293 288 289 287 286 284 281 282 277 279 280 280 279 276 275 279 296 304 304 304 304 305 306 305 304 304 304 306 308 309 310 310 311 312 313 314 315 315 315 315 315 316 315 315 316 318 318 316 317 317 318 318 318 318 318 318 317 317 316 316 316 315 315 315 314 314 313 313 313 313 313 313 312 312 313 313
286 284 281 278 275 278 279 283 284 286 289 284 285 285 287 286 285 282 282 280 279 281 278 279 273 279 297 304 304 304 304 303 304 305 305 303 304 304 305 306 307 308 308 309 309 309 310 311 313 315 316 316 315 314 315 315 316 317 317 317 318 318 318 318 318 318 318 317 316 316 316 315 316 315 314 314 314 313 313 313 313 313 312 313 314 314
286 284 284 277 272 271 271 271 273 275 282 284 287 287 288 286 284 284 282 279 278 280 280 276 274 284 299 302 301 301 302 302 302 301 301 300 300 300 301 301 301 301 302 303 304 304 303 305 307 311 314 315 316 316 316 316 317 316 317 317 317 317 316 316 317 317 317 317 316 316 316 316 315 315 315 315 314 314 314 314 313 313 313 314 314 314
284 286 283 280 279 278 277 276 280 285 283 282 285 285 286 285 286 284 280 277 278 278 278 281 286 290 295 297 298 300 299 297 296 297 297 298 298 299 299 298 298 298 299 300 300 301 301 301 302 304 306 311 316 316 316 317 317 317 316 316 316 315 316 315 315 317 317 316 316 315 315 315 315 315 315 315 315 315 315 314 314 313 314 315 315 314
284 284 286 286 285 282 284 284 286 288 283 283 283 284 286 287 286 281 279 281 281 284 279 285 292 292 293 297 297 296 295 294 294 295 295 296 297 297 297 298 298 298 298 298 298 297 298 300 301 302 304 306 310 316 317 317 317 317 317 316 315 314 315 315 316 316 316 316 315 315 314 314 315 316 316 316 316 315 315 314 314 315 315 315 314 314
284 281 285 285 284 286 287 287 287 286 285 284 284 284 285 288 287 283 283 282 281 276 280 290 294 292 292 291 292 293 293 292 293 293 294 295 296 297 296 296 296 296 297 296 296 297 298 297 299 301 304 306 309 311 314 315 316 316 316 317 316 314 314 315 314 314 314 314 314 315 315 316 316 316 315 315 315 314 314 314 314 314 315 315 314 315
287 284 288 286 283 285 287 287 288 285 284 283 283 284 286 288 289 289 287 286 284 284 290 294 291 286 290 291 292 293 294 293 293 294 295 294 294 295 295 294 295 295 295 296 296 296 297 298 299 300 301 302 305 308 311 313 314 315 315 315 316 316 315 315 314 312 311 311 311 312 313 314 315 316 314 314 314 315 315 315 314 314 313 314 314 314
289 283 290 286 282 283 286 288 288 286 283 282 283 284 285 286 290 290 291 291 292 291 291 290 287 286 290 294 293 294 293 294 294 292 293 293 294 294 294 294 294 295 295 296 297 297 297 297 298 298 299 300 300 303 305 307 310 312 314 315 316 316 317 316 313 313 312 311 312 311 311 311 312 313 314 313 314 314 314 314 314 313 313 312 311 312
289 283 288 284 282 280 285 286 287 286 284 282 282 283 284 285 285 286 286 288 288 288 289 289 286 285 290 293 293 293 292 292 291 292 292 293 294 294 294 294 294 294 295 295 296 296 296 296 296 296 297 297 298 299 299 300 301 302 304 307 311 314 316 315 315 314 314 314 313 312 311 310 310 311 311 311 310 311 312 312 312 312 311 311 311 310
286 285 283 284 283 281 285 286 285 285 285 283 280 283 285 286 287 288 288 289 290 292 288 287 287 289 291 292 290 290 290 290 290 291 292 293 294 294 293 293 294 294 295 295 295 296 296 296 296 296 296 297 297 297 299 299 298 298 300 300 302 305 306 307 309 311 313 314 313 312 311 310 311 311 311 310 309 309 309 309 309 308 309 310 310 310
289 288 284 286 282 281 283 283 283 283 279 279 286 290 288 285 287 286 285 287 290 291 286 289 289 291 291 290 289 288 289 288 290 291 293 292 292 292 293 294 294 294 295 295 295 295 296 296 296 297 297 297 297 298 298 299 298 298 300 300 300 300 301 301 301 302 304 307 310 313 313 312 311 310 310 310 310 309 309 307 306 305 306 308 309 309
287 286 284 285 283 282 283 283 282 278 278 285 291 293 292 291 290 288 289 290 290 290 290 289 289 289 290 290 290 290 290 291 292 292 292 293 293 292 291 293 294 294 294 294 294 295 295 296 296 296 297 298 298 297 297 297 298 298 298 298 298 299 299 299 299 299 299 300 301 303 306 309 310 309 308 309 309 309 308 307 306 306 305 305 308 308
286 286 282 282 282 283 281 278 275 276 284 289 291 292 293 292 290 289 287 289 290 290 289 288 288 289 290 290 291 291 291 292 293 293 293 294 294 293 292 292 292 294 294 294 294 294 295 295 295 295 296 298 298 297 297 296 297 296 296 297 297 297 297 297 297 298 298 298 298 299 300 301 301 302 304 307 307 307 306 305 305 305 304 304 304 306
290 285 284 282 282 279 279 279 279 285 285 287 286 286 287 285 286 285 283 285 290 292 290 288 289 290 290 290 291 291 292 292 289 289 294 294 294 295 295 294 294 295 295 295 295 295 296 296 296 296 296 296 297 297 296 297 297 296 295 295 295 295 295 295 295 296 297 297 297 298 298 298 299 299 298 299 299 301 302 303 304 304 304 305 304 304
288 287 283 282 279 281 280 278 280 280 278 282 287 291 291 290 289 289 286 284 292 292 293 290 288 289 289 290 291 292 293 289 284 285 290 294 296 295 296 296 296 296 296 295 296 296 296 296 296 297 296 295 295 296 297 297 296 295 294 294 294 294 294 294 293 295 296 296 296 297 297 297 297 297 297 297 297 297 298 299 301 303 306 307 306 306
288 287 285 283 279 279 276 276 278 276 279 283 285 288 289 288 290 289 285 282 289 293 293 291 289 289 290 290 290 290 288 284 283 285 290 292 295 296 295 296 295 295 295 295 295 294 295 295 296 296 296 295 294 295 296 296 296 295 294 294 294 293 293 293 293 293 294 295 296 296 297 297 297 296 296 295 295 296 296 296 297 298 300 303 306 306
283 280 281 281 276 275 274 272 273 276 277 284 286 288 288 289 291 285 278 279 288 293 293 292 290 290 290 289 289 288 287 283 283 286 292 293 293 292 293 293 292 292 293 293 294 295 295 295 294 293 294 294 294 296 295 295 295 295 294 294 294 293 292 292 293 294 294 294 294 295 296 296 297 296 296 295 295 295 295 295 296 296 297 297 298 300
274 276 278 274 272 274 277 275 274 276 282 286 287 288 289 290 288 277 273 280 290 291 292 292 291 291 290 288 288 284 285 288 290 292 293 291 291 291 291 291 291 291 291 292 292 294 292 292 292 291 292 293 294 294 294 294 293 293 293 293 292 292 293 294 294 294 293 293 293 294 294 295 295 295 296 296 295 295 295 295 294 295 295 295 295 296
274 272 274 276 276 273 273 273 274 275 282 286 288 288 290 289 281 278 283 288 291 290 292 292 290 291 289 288 288 288 289 291 292 291 289 289 289 289 290 290 291 291 292 292 293 292 291 290 290 290 291 292 292 292 292 292 291 291 291 291 291 292 294 294 293 294 294 292 292 292 292 293 293 294 295 295 295 295 295 295 295 295 294 294 294 294
275 272 273 273 274 273 270 270 272 273 281 287 286 288 291 285 284 288 289 290 292 291 291 291 290 289 290 289 290 290 290 289 288 288 288 288 288 288 288 289 288 288 289 289 289 290 290 288 288 288 288 290 291 292 292 291 290 289 289 289 290 292 292 292 292 292 292 292 292 292 292 292 292 293 294 294 294 294 293 294 294 294 294 294 294 293
281 274 274 274 278 270 270 271 273 280 283 288 287 283 286 288 291 290 290 289 292 291 290 289 289 289 290 289 288 287 287 287 287 287 287 287 287 288 288 287 288 288 288 289 289 289 290 288 288 287 287 288 289 290 291 291 290 289 289 288 290 290 291 290 290 290 290 291 291 291 292 292 292 292 293 293 294 293 293 293 294 294 294 294 294 293
284 279 278 277 281 273 275 279 284 287 287 289 289 288 289 291 292 292 290 290 289 288 290 288 288 289 290 288 287 287 286 287 286 287 287 286 287 287 286 286 286 287 287 288 288 289 288 288 288 288 287 287 287 288 288 289 289 289 287 288 290 290 290 290 290 289 289 289 289 290 291 291 291 291 291 292 293 292 293 293 293 293 293 293 293 293
288 287 286 285 282 287 287 288 289 289 290 290 291 292 291 291 292 292 290 288 288 288 289 288 288 288 288 289 287 286 286 285 285 285 285 285 285 286 287 286 287 287 287 288 287 287 287 287 287 287 287 286 286 286 287 287 287 286 286 287 288 288 289 289 289 289 288 288 288 288 289 289 290 290 290 291 291 292 292 292 292 292 292 292 293 292
285 285 284 282 284 282 278 287 287 288 290 290 291 292 293 293 292 292 291 290 289 289 289 289 289 289 289 289 287 286 286 286 285 285 284 284 283 283 284 284 284 284 285 285 285 286 286 286 286 286 286 285 285 286 286 286 286 286 286 286 286 287 288 288 287 288 287 286 287 287 288 288 288 288 289 289 290 291 291 291 291 291 291 291 291 291
282 286 283 281 282 280 281 285 288 290 291 292 291 290 290 292 292 293 293 292 291 291 290 289 290 289 289 288 288 287 286 286 286 285 285 285 285 285 286 286 285 285 284 284 285 285 285 285 285 285 285 285 284 285 286 286 285 285 285 286 286 286 286 287 287 286 285 285 286 287 287 287 286 287 288 288 289 289 289 290 290 289 289 289 289 289
281 283 275 281 281 284 287 288 289 289 290 290 291 291 291 292 292 293 293 293 292 291 290 290 291 289 289 288 288 287 286 286 286 285 285 284 285 285 286 286 286 286 285 285 284 285 285 285 285 284 284 284 283 284 284 284 285 285 285 285 285 285 286 285 285 285 284 284 285 285 286 286 286 286 286 287 288 288 288 288 288 288 289 289 289 288
281 280 281 282 279 278 281 284 288 283 282 287 290 291 292 293 293 292 293 292 292 291 290 289 289 290 291 290 289 288 286 285 284 284 284 284 284 284 283 284 283 283 283 283 284 284 285 284 284 284 284 283 283 283 284 283 284 284 284 284 284 284 286 285 284 283 283 283 283 284 285 285 285 285 285 285 286 286 288 287 289 289 287 288 288 288
280 281 277 273 277 275 281 287 287 288 287 287 288 289 290 291 292 291 291 291 290 290 289 288 286 286 286 286 286 286 284 284 282 282 282 282 282 283 283 284 283 282 283 283 283 283 283 283 284 284 283 283 284 284 284 283 283 283 284 283 283 283 283 284 284 283 282 283 283 283 284 284 284 284 284 285 285 285 285 286 287 288 288 288 288 288
Wind_Speed
4 4 4 8 2 3 3 7 7 6 4 2 2 1 4 5 7 1 2 6 1 2 5 7 5 4 7 7 6 9 7 3 7 10 9 9 9 10 11 10 9 8 8 3 4 4 4 3 3 5 4 2 5 7 7 7 8 9 9 8 8 7 7 7 8 7 8 7 7 6 6 6 5 6 6 4 4 4 4 5 5 5 5 5 5 5
3 4 9 5 6 7 6 6 3 3 0 2 2 3 7 3 8 2 2 3 3 3 5 3 2 7 9 5 6 5 5 10 11 11 12 12 11 12 14 12 11 8 1 3 3 3 4 4 5 5 4 3 8 7 7 8 8 8 9 10 8 6 7 7 7 6 6 5 5 5 5 5 4 7 6 4 4 4 4 4 4 4 5 5 5 5
1 9 2 8 8 4 4 4 3 4 2 1 3 3 4 7 4 7 5 3 1 5 7 2 1 8 7 7 5 5 12 11 15 17 17 15 14 13 12 12 9 8 6 2 2 3 3 5 5 5 4 4 6 6 7 8 8 8 8 8 7 6 7 6 7 7 6 5 5 5 4 6 4 3 3 4 4 4 5 4 5 5 5 5 5 5
3 6 8 6 4 4 1 4 4 2 1 3 1 1 8 3 3 6 5 2 1 1 5 5 5 9 7 5 3 2 4 5 3 10 14 17 17 16 17 16 14 13 11 10 6 4 5 5 4 5 4 6 7 6 6 8 9 7 7 8 7 7 7 6 7 7 7 7 7 6 6 5 4 5 5 5 5 5 5 5 4 4 4 4 5 4
8 3 1 4 5 6 5 3 4 3 4 2 4 4 3 1 4 7 6 4 5 4 2 3 3 6 4 6 7 6 6 2 1 5 7 9 10 8 5 6 7 11 11 8 6 6 6 6 6 6 3 7 8 6 7 8 7 5 8 8 8 7 7 7 7 8 8 8 8 7 6 7 7 6 5 6 4 4 4 4 4 4 4 4 4 4
8 7 3 5 1 2 3 1 4 5 5 3 6 10 7 6 7 6 3 4 6 5 1 1 4 3 3 4 5 7 6 1 1 8 12 12 12 10 11 11 8 7 4 5 7 7 6 6 5 7 5 7 8 7 6 6 6 6 7 8 7 6 7 7 8 8 7 7 9 8 8 7 5 6 6 6 7 5 5 5 3 4 3 4 3 4
6 1 7 6 4 3 4 4 4 6 6 1 7 9 11 10 7 5 4 2 2 1 2 2 1 6 4 4 7 7 4 5 4 6 10 9 10 10 10 9 9 8 6 3 5 5 7 6 5 8 6 7 8 6 6 6 5 6 7 7 7 7 7 7 8 7 7 7 6 7 7 7 8 8 2 3 4 5 4 5 5 4 3 3 5 4
2 2 5 3 4 4 2 4 5 10 6 3 6 10 7 5 5 6 2 4 5 2 3 2 3 3 5 3 4 4 3 2 5 7 9 10 10 10 6 5 5 5 6 6 7 6 6 6 5 8 6 7 7 5 7 6 6 7 8 8 7 6 7 6 7 6 7 8 6 6 5 6 7 7 7 6 5 4 5 6 5 4 3 3 3 5
5 3 5 4 2 3 7 6 4 8 7 7 2 9 8 10 9 4 3 4 2 1 9 1 0 1 3 4 3 3 2 3 7 8 10 11 9 5 4 5 6 5 5 6 6 8 8 6 6 6 7 7 6 6 6 5 5 6 6 6 6 7 6 6 6 6 5 6 7 6 6 6 3 5 6 5 5 6 5 6 4 5 4 4 3 3
2 5 9 9 7 7 6 4 10 11 4 6 5 1 2 3 2 3 4 3 1 1 7 6 2 1 6 4 3 3 4 7 7 6 7 8 6 5 5 5 6 6 7 6 7 7 8 6 6 5 6 8 5 4 4 3 4 5 6 6 6 7 6 6 6 6 6 5 6 7 6 8 6 6 5 5 6 5 5 6 4 4 5 4 4 4
2 3 7 6 6 7 5 6 9 12 10 3 6 3 2 6 2 3 4 2 2 3 8 5 1 2 4 4 5 4 4 3 5 4 4 5 6 6 6 7 6 7 8 7 8 7 7 7 8 6 9 9 5 5 5 4 5 6 6 6 6 6 5 6 7 7 7 6 6 7 7 8 8 7 7 7 5 4 4 6 4 4 4 4 4 4
1 1 1 3 5 2 3 1 3 8 2 1 0 1 2 1 5 3 3 4 2 6 8 2 3 5 4 3 3 5 5 6 4 8 6 6 6 6 5 5 5 5 6 7 7 8 8 10 9 6 6 10 7 7 7 5 5 6 6 7 7 6 6 5 6 7 7 6 5 5 7 8 8 9 7 7 7 6 6 6 5 4 5 3 4 3
4 5 3 5 3 10 2 3 4 0 2 4 4 3 3 2 2 1 2 2 5 6 3 2 4 2 3 2 4 8 7 6 6 7 6 2 3 2 0 2 4 5 4 4 2 2 2 8 10 8 4 8 9 8 7 7 6 6 7 8 8 7 5 6 6 7 6 6 6 7 7 7 7 8 8 7 7 5 7 6 6 5 5 4 4 3
6 2 1 5 3 4 5 5 1 1 2 7 6 5 4 1 1 1 3 1 5 7 4 1 1 1 2 2 2 7 9 8 7 6 1 2 3 4 5 6 8 9 9 5 2 1 1 2 7 8 4 4 7 7 6 6 6 5 6 8 8 7 5 5 6 7 7 6 7 7 8 8 8 8 8 7 8 7 6 6 7 6 6 5 4 4
1 2 5 4 2 2 7 10 12 7 9 9 3 11 8 8 5 2 3 4 6 7 2 3 1 2 2 1 5 4 5 6 3 3 5 7 8 7 7 7 7 5 2 4 6 4 1 4 4 6 6 1 6 5 6 4 5 5 4 6 7 6 5 6 6 6 7 7 7 7 7 8 6 7 6 6 7 7 7 5 6 5 4 5 4 5
5 4 6 5 1 2 6 3 2 5 4 0 2 5 6 6 6 3 5 3 2 1 0 1 1 0 1 2 3 1 6 9 7 6 6 7 8 9 9 9 4 2 1 2 5 7 5 4 4 4 7 3 4 5 4 5 4 4 4 5 5 5 5 5 6 6 7 6 5 6 6 6 6 5 5 5 5 5 6 7 7 6 4 4 4 3
1 2 2 7 1 4 5 3 2 7 3 3 4 5 7 2 8 5 2 2 4 3 1 0 3 3 6 3 4 7 8 9 8 7 6 7 8 10 9 8 7 5 4 4 4 5 7 5 4 5 5 6 4 6 4 5 4 5 4 4 4 4 3 3 4 5 4 5 5 5 6 6 6 7 8 7 6 6 4 5 5 6 4 4 3 4
3 5 4 2 7 3 1 3 1 1 5 5 2 7 1 2 4 5 4 2 3 2 3 1 1 4 2 2 5 7 9 7 8 7 5 3 6 9 8 8 7 6 5 7 4 6 7 6 4 4 6 7 6 4 8 6 4 5 7 5 2 4 4 2 3 4 4 5 5 5 6 6 7 7 7 7 8 6 7 5 5 5 6 5 4 4
3 4 5 3 5 7 5 2 3 1 1 7 3 5 5 2 2 2 5 0 0 1 1 2 1 3 4 2 4 6 6 6 5 7 7 7 7 9 10 8 6 7 7 7 8 4 8 7 6 6 7 10 10 8 7 8 7 6 8 7 5 6 4 1 2 4 3 4 5 5 7 7 6 6 7 6 7 7 7 7 6 6 6 5 5 5
1 2 6 2 2 2 2 3 3 2 2 2 4 4 1 3 3 4 5 4 5 3 2 3 2 2 2 2 4 8 6 6 4 6 7 8 7 7 7 8 5 6 8 8 9 7 8 6 7 5 6 8 10 9 6 7 5 7 8 11 8 8 8 4 1 3 7 5 6 6 6 5 6 7 8 7 8 7 7 7 7 6 5 6 5 5
1 0 3 3 3 3 1 2 1 4 4 1 2 1 1 2 2 5 2 2 3 5 4 3 1 4 3 2 4 7 7 5 4 4 5 7 8 9 8 8 7 7 7 5 6 6 7 8 6 5 5 6 6 8 8 7 7 7 10 10 10 13 10 6 5 4 5 5 6 7 8 7 7 7 7 7 7 8 6 6 6 6 6 5 5 5
3 1 4 3 5 2 5 3 2 2 4 4 7 6 8 6 4 2 3 1 2 3 3 4 4 5 5 2 3 4 3 2 4 6 7 7 6 4 3 4 7 8 7 6 6 5 2 3 1 2 2 1 6 7 9 8 9 10 11 13 13 8 6 7 7 6 5 4 5 7 7 7 7 8 7 8 7 7 7 6 6 6 5 6 5 6
3 3 2 0 1 2 2 4 1 1 4 2 4 4 4 2 6 4 3 3 3 1 4 3 2 2 2 1 2 2 4 4 5 7 8 7 6 6 6 7 6 7 8 8 7 4 4 4 3 1 2 2 3 5 9 10 11 11 11 6 4 7 7 6 5 5 6 6 6 6 6 7 7 7 8 8 7 7 7 6 6 5 7 6 6 4
4 2 2 2 5 6 5 5 1 1 1 1 3 3 1 2 5 7 4 6 7 2 1 1 1 2 2 4 5 5 7 6 5 7 8 7 7 7 7 6 7 8 7 6 6 4 3 3 3 3 3 4 4 5 4 6 5 2 1 4 8 11 10 6 4 5 5 6 6 5 5 6 6 8 8 8 7 8 7 6 5 5 5 6 5 6
1 2 4 2 2 6 5 6 3 3 5 3 1 3 2 1 4 2 5 1 4 6 4 7 4 2 1 4 5 5 8 9 9 9 8 9 8 9 9 9 8 9 10 10 10 9 9 8 6 4 4 4 6 4 5 5 2 2 3 3 4 2 3 4 6 6 6 7 8 7 7 7 7 8 8 8 7 7 6 6 6 5 5 5 5 4
1 1 3 3 4 4 2 1 3 1 1 4 1 5 4 3 2 2 2 1 3 1 3 3 2 4 3 6 6 7 9 12 11 11 11 10 9 8 8 8 10 10 9 9 9 11 11 8 7 8 6 5 4 4 4 4 3 2 4 5 5 5 4 3 4 6 6 6 7 7 7 7 7 8 7 6 5 7 7 7 7 7 5 6 6 4
3 1 2 4 7 8 6 2 2 0 3 3 7 5 9 3 4 2 4 5 6 4 2 2 4 8 7 7 7 7 9 11 12 11 11 9 9 9 9 9 9 10 10 10 8 8 10 12 11 10 10 7 4 4 3 4 3 4 5 7 6 6 6 5 5 4 4 4 5 6 5 6 6 5 6 6 5 5 7 6 6 6 6 5 6 5
4 5 2 7 6 1 1 4 3 1 2 0 5 8 7 9 6 1 2 2 4 11 0 1 5 9 7 8 7 9 10 11 10 9 9 7 8 8 7 9 11 13 11 10 12 12 10 9 11 12 11 10 8 6 6 6 5 6 5 4 4 6 6 5 5 4 3 7 6 5 5 6 6 6 6 7 6 2 2 3 3 3 3 3 5 5
4 3 0 3 3 2 3 4 3 3 4 4 4 6 10 9 9 4 1 2 3 2 7 7 8 8 6 5 6 8 9 10 10 9 8 7 7 8 10 12 14 11 10 12 10 10 13 12 11 12 11 10 10 10 9 7 7 7 7 5 4 5 5 5 4 5 4 4 6 8 8 6 6 7 6 5 7 4 0 0 1 1 2 3 3 4
5 3 0 1 2 5 6 6 5 5 3 4 8 7 7 8 9 7 5 2 1 3 6 12 10 8 4 4 6 7 8 10 9 7 8 10 9 8 9 11 12 10 11 11 9 10 11 11 12 12 12 12 12 10 10 9 8 7 7 6 4 5 3 4 4 5 5 4 3 2 2 2 7 9 7 5 5 9 8 6 5 4 4 3 1 2
3 1 3 1 3 4 6 6 5 5 4 5 7 10 10 7 8 9 6 7 9 9 11 11 10 6 4 5 7 7 6 8 10 13 11 8 8 9 12 13 12 10 9 10 11 10 10 12 12 13 13 12 12 11 11 10 10 10 9 7 6 5 4 4 5 5 5 5 5 5 6 5 4 2 4 3 2 2 4 5 3 4 4 2 2 3
5 1 1 1 3 2 3 6 4 2 4 7 7 12 10 8 7 5 4 4 3 7 10 12 6 3 4 6 7 7 9 12 13 12 11 10 10 10 12 11 11 9 10 8 8 10 14 15 13 12 12 12 12 12 12 11 11 12 11 10 10 9 8 7 7 7 6 6 5 5 6 6 6 6 5 4 3 1 1 2 2 2 2 1 2 3
2 6 3 2 4 1 2 3 5 2 3 1 5 5 7 3 0 0 2 4 4 3 10 10 5 6 8 5 10 9 10 10 11 9 9 10 10 11 11 10 9 8 8 8 11 14 15 12 10 11 12 11 11 12 12 10 13 12 11 11 9 10 11 11 10 9 9 8 7 7 5 5 5 4 5 4 4 3 3 3 3 2 2 3 4 2
2 6 3 1 3 1 2 4 2 3 3 2 2 2 3 3 2 6 4 4 6 6 2 5 8 10 9 8 12 10 11 9 8 8 7 6 7 10 10 8 8 7 8 10 9 11 10 9 9 11 12 12 11 11 10 10 13 12 11 11 12 13 11 12 12 11 10 10 9 7 6 5 6 5 5 3 4 4 4 3 3 4 4 3 1 0
4 4 3 1 4 2 0 1 2 3 0 0 1 2 2 6 8 11 8 9 8 11 12 12 10 9 8 8 9 12 11 11 11 10 9 8 7 6 9 9 8 6 8 8 10 10 9 9 11 11 12 11 11 10 10 12 12 12 12 12 13 12 13 12 12 12 11 11 11 11 10 9 8 6 5 4 3 4 4 4 5 5 3 2 1 1
6 6 3 3 2 2 1 1 2 1 1 0 1 1 1 1 1 1 9 9 8 5 11 11 11 11 10 11 10 9 12 12 12 11 10 9 9 7 7 9 7 6 9 7 10 10 10 9 10 11 10 8 9 11 11 11 9 13 13 12 13 13 13 12 13 12 11 12 11 11 10 9 10 10 9 7 6 7 7 7 6 5 4 3 4 4
9 5 4 3 1 3 2 2 2 0 2 1 2 3 3 2 3 1 4 3 4 2 2 13 11 11 10 9 10 9 8 10 12 9 9 9 8 8 8 8 6 5 7 8 9 9 8 8 9 9 9 10 11 11 10 9 9 11 13 14 12 13 13 13 13 12 11 11 11 11 11 11 11 10 10 9 9 9 8 8 7 6 5 4 4 1
1 7 3 5 1 3 4 3 2 1 2 2 2 1 0 2 1 3 1 3 3 6 4 9 12 10 9 8 8 7 4 12 9 5 8 7 6 7 6 6 5 4 5 7 8 8 8 8 9 10 11 12 13 11 9 9 10 12 13 13 12 12 11 12 12 10 10 10 9 9 9 9 9 9 10 10 10 9 7 7 6 7 4 4 2 3
8 8 5 5 3 3 2 4 1 2 0 2 3 4 3 2 3 2 2 3 1 5 6 7 10 8 11 10 5 2 4 6 3 1 2 4 5 6 5 5 5 5 6 6 7 8 7 7 8 9 9 12 13 10 10 10 11 12 12 11 11 11 12 12 10 9 9 8 7 7 8 8 9 8 8 8 9 7 8 8 7 6 6 6 4 4
9 5 4 5 3 1 4 3 2 0 1 2 4 5 6 3 2 1 2 2 3 6 7 7 10 9 8 5 3 2 5 8 6 4 4 2 5 4 3 4 5 6 7 7 7 6 6 5 7 10 12 12 9 6 9 10 12 12 10 10 10 12 11 10 9 8 7 7 8 7 8 8 9 7 8 8 8 9 8 6 7 8 8 8 7 7
5 4 6 3 3 4 5 1 2 1 1 2 6 9 9 3 1 3 2 3 5 7 8 7 9 7 5 4 0 4 3 5 9 8 5 6 6 6 5 5 5 5 7 8 8 7 9 10 11 11 10 8 7 7 7 9 11 11 9 9 11 11 8 7 8 8 7 7 9 10 10 9 9 9 8 7 7 7 7 8 8 7 9 8 7 7
5 2 1 3 6 2 1 4 1 1 1 4 9 9 6 1 1 2 1 2 9 9 8 9 9 5 4 3 7 9 10 10 9 7 7 6 6 5 5 5 6 8 8 8 8 9 10 10 11 10 10 8 8 7 7 9 12 9 8 10 11 7 5 6 6 4 5 7 8 8 9 9 8 8 7 7 7 8 7 5 5 6 6 6 7 8
2 2 1 2 1 1 3 3 1 1 1 7 13 5 2 1 1 0 3 4 7 10 9 6 5 5 8 10 10 12 11 9 8 8 6 5 7 6 6 7 8 8 8 8 10 8 9 10 11 10 9 7 8 8 8 11 12 9 9 10 7 4 4 4 4 4 5 6 7 7 7 7 7 6 5 6 6 7 7 6 7 7 7 7 6 6
1 2 0 1 1 2 2 2 0 2 7 9 4 0 3 2 2 1 1 8 5 7 7 7 5 6 7 13 12 10 10 11 9 7 7 6 5 5 6 6 6 7 7 6 6 6 9 10 9 9 8 8 8 8 7 9 10 9 9 9 4 3 3 4 4 5 6 6 6 6 5 5 5 5 5 6 5 6 6 7 6 7 6 6 6 6
8 3 1 4 2 2 2 2 3 3 5 6 3 3 4 6 6 6 6 5 8 5 4 8 8 7 7 12 11 12 11 8 8 6 8 5 5 6 7 6 5 6 7 7 7 7 7 8 8 8 9 7 8 7 7 6 9 9 8 5 4 4 4 3 4 6 6 6 6 6 5 4 5 5 5 5 5 6 6 6 6 7 7 6 7 7
1 2 2 4 7 8 9 4 1 4 6 7 7 7 9 9 10 9 9 10 8 7 5 7 9 9 8 8 13 8 8 8 9 7 6 5 5 5 5 6 6 6 6 6 7 7 6 7 8 9 9 8 7 7 6 7 7 8 3 2 3 3 3 4 6 6 6 5 5 5 5 6 5 5 5 5 4 5 4 4 4 4 4 5 5 5
2 1 2 5 1 2 4 6 6 5 5 8 10 10 10 10 9 10 12 10 10 9 10 8 8 9 9 8 11 11 8 6 8 5 4 5 5 5 6 6 4 4 5 6 3 4 6 6 7 7 7 7 6 6 6 6 6 4 3 4 4 4 5 6 6 6 6 7 6 6 6 7 6 6 6 6 5 4 4 5 5 5 5 4 4 4
2 1 7 4 4 4 3 1 4 5 6 6 5 9 11 11 12 11 10 9 10 10 10 8 8 10 8 9 8 9 7 5 9 6 5 5 5 5 5 6 6 6 4 3 3 5 6 6 6 5 5 5 5 5 5 5 5 4 4 4 4 3 5 6 6 6 6 7 5 5 6 6 8 8 6 6 5 5 5 5 4 5 5 5 5 5
2 2 1 1 5 6 6 4 5 7 9 7 7 6 6 7 10 10 10 11 11 13 12 11 9 7 8 7 7 8 8 5 6 7 7 5 5 5 5 5 5 5 4 4 3 4 5 4 4 4 4 3 3 3 4 4 4 5 5 4 4 3 5 5 5 6 6 6 6 7 6 6 6 6 6 7 7 6 4 5 5 5 4 3 4 3
3 5 1 6 7 1 2 5 4 4 3 4 5 6 7 8 9 8 7 8 9 9 9 9 6 4 5 5 8 8 9 6 3 5 6 5 5 5 4 4 4 4 4 3 4 4 4 3 4 4 3 1 1 2 2 3 3 3 3 4 4 4 5 4 5 6 6 5 6 6 6 6 6 6 6 6 6 8 7 4 3 1 2 4 4 4
2 3 3 3 6 3 4 2 2 5 6 1 2 2 3 3 7 9 8 7 5 7 9 10 8 5 4 3 2 8 7 7 4 4 6 4 4 4 4 6 6 4 4 4 5 4 4 4 4 4 3 1 0 0 1 2 3 3 4 3 3 3 3 4 5 5 5 5 5 5 5 6 6 6 6 6 7 6 8 10 5 6 7 7 8 7
Wind_Direction
134 155 182 212 161 182 218 186 191 192 151 98 126 159 225 242 270 257 227 256 159 336 255 256 257 242 272 257 235 219 216 168 134 160 156 169 173 183 187 191 190 196 204 161 142 133 121 100 98 110 113 129 125 128 139 140 138 139 142 141 146 139 136 134 131 131 129 127 121 113 120 119 125 126 120 120 127 134 148 149 148 155 160 154 148 144
89 164 234 190 180 169 199 191 127 103 73 209 255 239 276 212 266 269 282 252 209 176 286 266 292 277 255 274 236 234 200 199 172 171 171 180 183 188 190 189 191 194 115 137 133 123 111 111 121 121 139 163 142 142 143 143 138 137 140 146 143 138 137 137 138 134 128 132 133 129 132 133 132 137 138 133 137 142 146 149 152 155 154 149 141 132
114 212 218 177 194 153 91 109 141 167 178 107 203 247 276 272 252 277 254 270 266 131 249 302 309 273 282 283 278 206 200 208 186 177 180 177 184 192 192 186 180 180 195 191 159 130 122 127 132 137 154 160 133 141 143 138 134 136 142 145 145 143 138 136 133 132 127 115 111 122 137 139 111 76 115 125 140 140 142 148 151 151 142 137 124 120
284 279 214 200 138 131 73 104 119 86 72 169 206 221 252 238 353 303 294 353 341 190 285 283 308 283 311 303 309 277 284 312 256 199 184 184 184 188 192 185 184 183 185 189 181 177 143 140 151 149 160 156 137 150 144 145 147 146 141 145 144 143 132 129 129 120 115 112 101 94 113 103 105 133 114 105 116 126 131 131 138 121 124 122 119 127
209 198 111 120 147 159 198 166 134 155 256 275 197 219 250 269 224 187 260 332 301 304 205 277 302 315 344 360 338 322 322 314 129 160 187 212 215 203 168 181 188 187 185 178 173 169 153 150 168 168 165 146 150 163 163 157 156 151 145 143 144 138 132 128 128 124 122 113 102 107 96 97 91 84 103 112 97 113 124 115 111 115 108 114 131 142
266 255 115 94 84 142 172 234 212 161 233 294 226 204 209 218 242 248 293 2 14 326 309 148 18 303 311 322 324 317 346 329 289 178 198 196 197 188 189 185 174 182 173 184 188 166 145 148 157 154 166 153 154 166 168 159 147 139 141 140 138 130 130 130 131 134 132 132 134 133 129 130 122 125 137 145 150 141 141 144 112 97 117 130 136 139
222 171 163 183 152 154 168 200 236 151 206 192 274 194 209 218 224 243 252 89 297 232 298 34 133 273 323 360 334 331 331 307 325 228 204 196 198 197 196 179 170 172 168 139 133 147 148 155 167 151 173 153 154 166 155 155 147 134 140 145 143 139 135 134 138 139 130 128 143 150 152 150 152 142 148 117 128 133 128 118 122 128 114 139 143 143
115 168 156 126 146 152 126 251 233 164 143 237 233 174 193 203 220 238 197 179 234 261 287 40 120 214 307 293 300 277 280 300 264 234 211 208 202 202 189 153 137 162 182 160 154 149 151 165 169 153 161 149 152 156 157 158 149 142 147 151 146 139 140 139 140 140 143 141 147 132 128 137 140 145 146 147 136 120 127 120 133 127 120 105 128 142
149 172 154 138 140 139 204 206 177 156 148 219 225 158 175 187 205 189 163 195 229 11 288 336 68 83 260 263 295 322 323 286 256 228 218 211 211 199 154 131 137 154 151 153 146 159 159 159 154 144 152 140 138 158 165 161 143 130 133 139 135 137 134 135 141 140 144 144 146 137 132 123 111 117 123 122 118 125 129 124 127 120 113 94 81 108
274 163 196 164 151 211 222 206 163 169 198 271 158 150 84 84 85 148 150 155 292 85 273 270 187 196 284 279 322 330 296 265 245 238 226 208 199 169 149 137 141 133 134 140 150 153 164 151 142 133 136 129 141 147 139 108 124 122 125 135 135 133 136 141 139 140 142 142 136 133 138 129 121 113 104 110 126 135 141 123 117 111 104 100 88 78
216 315 150 119 187 211 187 205 172 189 197 118 111 122 41 42 33 36 81 93 80 268 254 247 215 178 284 265 206 165 228 266 307 273 228 212 194 172 165 164 156 146 142 145 151 152 159 145 140 128 146 134 128 126 130 132 135 132 134 138 132 132 135 141 142 143 147 147 150 144 143 137 132 127 125 122 118 120 116 118 118 117 102 83 95 100
353 42 115 240 194 178 146 202 237 208 197 207 60 122 65 333 12 33 344 48 176 265 260 292 193 150 159 293 316 256 289 288 264 256 249 234 212 193 173 168 150 133 138 146 152 159 160 151 150 137 128 136 133 130 142 153 144 144 143 140 132 136 142 142 142 141 148 147 143 138 140 139 140 138 140 143 147 151 138 133 128 114 100 95 100 106
279 219 232 273 222 188 192 209 314 181 200 119 84 62 136 263 47 284 12 241 216 216 245 74 130 100 211 214 276 306 299 292 252 246 252 261 218 169 45 52 56 52 72 115 96 106 180 155 148 160 132 134 140 146 153 157 157 150 147 145 143 146 149 146 145 144 147 144 146 144 141 141 143 143 145 144 143 155 144 144 133 135 136 136 111 127
274 287 300 257 320 205 150 197 256 27 191 133 158 159 104 137 61 237 270 210 315 286 249 12 186 248 227 313 289 311 310 296 269 251 170 145 133 86 72 65 60 47 33 33 99 136 321 64 138 160 157 133 130 141 149 148 152 150 149 152 149 150 150 147 143 147 151 156 151 149 148 151 149 149 148 151 149 159 154 151 147 153 158 160 164 156
11 348 277 154 253 201 167 193 198 181 162 196 131 155 182 143 161 212 195 216 219 213 283 288 123 228 134 234 328 308 299 344 345 114 97 106 112 111 99 92 78 103 148 174 136 134 80 38 93 139 150 101 124 123 138 134 133 140 145 150 142 141 151 148 148 149 158 162 159 157 154 150 147 146 146 152 149 147 144 143 139 148 149 147 163 146
195 199 256 224 159 138 174 241 119 93 89 211 164 60 91 219 143 189 206 163 261 286 39 3 180 236 148 301 307 291 28 21 23 51 77 79 91 91 83 81 50 360 80 82 132 134 140 64 61 108 128 84 104 114 123 133 128 131 138 140 142 150 157 152 150 160 164 162 158 148 142 138 134 127 125 124 129 136 145 149 151 157 158 148 135 147
39 293 265 313 161 196 222 149 212 147 201 230 103 181 212 161 114 78 67 55 101 57 223 359 337 316 306 330 7 357 35 28 27 34 54 67 72 82 98 111 125 115 73 87 139 142 130 83 62 84 109 110 85 135 131 144 151 146 127 110 122 117 111 140 148 155 155 148 144 147 138 134 131 139 147 148 145 138 126 135 142 142 142 129 136 135
141 237 288 89 305 290 219 181 186 166 144 91 166 233 142 103 117 128 199 346 69 163 247 44 225 295 49 218 344 357 21 22 33 27 44 68 85 82 75 76 73 77 80 75 71 139 131 125 88 91 128 140 125 120 140 145 152 137 115 97 115 121 123 120 129 144 148 147 146 147 142 143 148 149 145 144 143 142 133 130 130 130 134 148 151 134
139 299 295 234 225 274 340 127 19 6 360 155 199 172 114 264 228 322 94 243 136 262 270 335 249 247 171 259 349 339 344 337 12 35 39 44 58 81 81 64 47 62 53 79 60 101 128 141 153 165 150 159 151 139 152 143 140 133 126 118 62 29 28 17 173 150 145 155 155 154 152 148 144 146 144 148 145 145 144 149 152 153 150 137 139 132
29 195 290 293 175 308 2 59 246 281 322 46 104 98 351 104 163 132 195 169 125 221 69 286 32 239 220 229 318 305 332 330 332 65 45 56 68 76 79 81 67 66 69 81 93 89 113 138 174 184 160 152 156 143 150 139 125 125 117 102 106 134 186 182 230 169 159 165 153 150 142 146 149 149 146 149 145 151 156 152 146 144 146 155 137 128
129 114 220 280 307 340 279 341 232 163 163 94 103 260 64 31 217 104 36 87 170 167 173 163 306 283 265 253 304 304 321 321 310 79 63 66 74 80 87 87 84 81 86 86 84 97 130 169 200 183 149 132 132 143 138 142 126 102 99 132 170 186 179 161 165 184 173 156 157 147 151 150 144 141 142 148 156 151 152 147 151 158 153 131 136 135
87 101 199 312 6 327 238 257 208 194 188 177 163 195 168 122 121 150 249 19 78 100 195 130 235 267 268 337 315 324 357 2 41 68 70 52 57 56 64 92 110 101 68 59 57 44 6 77 51 296 291 80 108 113 121 111 102 123 149 179 187 166 165 178 165 162 157 149 151 158 157 155 149 149 152 151 155 151 150 152 158 153 142 148 157 148
144 159 98 296 201 232 246 254 190 221 131 207 154 208 157 122 104 103 146 237 55 28 113 144 110 282 256 356 60 67 76 64 63 77 74 63 54 40 35 46 45 76 93 80 64 44 28 17 29 52 60 45 101 114 126 132 147 166 187 177 120 149 188 193 169 148 140 142 152 164 161 151 149 151 157 156 161 158 157 159 158 156 151 154 156 163
99 66 41 299 315 299 308 290 337 61 85 30 16 47 65 180 177 168 174 179 139 180 74 12 126 247 313 76 80 89 92 83 77 87 89 66 48 45 47 63 61 56 55 79 80 65 48 62 41 5 35 70 78 83 103 150 132 78 95 146 163 179 189 168 126 123 133 138 147 150 147 154 152 157 160 163 169 167 163 154 153 161 158 157 154 155
103 290 114 44 5 338 344 346 5 339 54 81 348 318 341 345 64 146 108 61 99 207 166 126 213 263 267 84 80 100 92 76 70 61 71 75 57 49 46 44 45 45 45 43 52 48 45 41 34 39 53 68 73 53 52 46 62 144 137 154 183 176 140 132 127 136 145 152 150 151 152 157 161 160 166 172 173 166 150 149 153 161 159 155 159 151
89 185 124 148 164 180 212 258 255 289 275 284 48 356 7 43 68 83 129 92 140 224 126 135 197 254 138 114 101 82 87 82 66 57 53 47 48 50 50 52 54 51 43 47 46 44 39 33 28 32 29 56 74 104 107 106 94 51 61 56 52 55 49 71 127 141 150 150 144 153 159 160 158 160 164 165 163 160 154 153 160 161 174 171 156 156
114 61 74 149 161 190 201 222 262 253 351 39 311 16 345 342 337 101 96 106 189 177 108 223 166 153 139 134 122 103 69 69 62 51 50 47 46 49 58 60 65 61 48 41 47 52 49 38 29 30 28 20 45 80 81 97 87 76 70 65 68 56 64 72 106 150 144 119 141 146 146 138 136 142 137 139 151 166 154 161 158 156 179 179 157 161
72 68 28 87 72 161 226 231 263 246 112 43 26 340 345 356 341 80 122 218 163 117 239 243 193 135 145 122 95 76 77 76 66 56 52 48 49 49 56 67 62 58 49 42 38 39 41 43 35 30 26 24 22 47 67 66 57 65 77 97 90 83 83 102 139 155 155 150 149 140 136 141 133 126 121 108 88 48 64 88 121 169 187 172 161 166
118 114 253 54 52 32 40 30 28 93 90 106 65 27 13 351 15 57 154 124 111 121 186 169 154 124 78 56 67 72 83 93 79 73 67 57 55 60 60 58 56 49 45 46 37 36 43 35 38 31 25 23 26 33 43 49 55 57 60 67 100 95 111 128 124 119 129 155 161 157 150 138 121 117 108 121 118 108 94 83 274 256 236 216 182 156
94 51 167 92 96 33 14 17 17 92 120 58 36 31 22 20 33 42 55 3 90 132 132 132 104 74 57 66 72 89 96 94 88 79 70 60 60 67 66 58 53 48 48 47 38 45 47 46 48 44 38 29 29 26 34 42 48 55 59 56 66 108 124 113 78 63 62 58 46 34 19 114 150 150 143 149 165 164 183 197 201 204 225 230 140 106
98 245 102 92 60 355 353 356 26 35 87 73 26 28 24 18 47 33 53 45 62 70 93 98 93 83 41 79 94 93 92 88 80 75 70 68 70 67 69 70 64 53 48 52 54 47 53 55 52 52 46 37 35 35 39 35 36 37 38 42 42 46 53 65 71 52 52 52 46 42 59 43 7 60 115 126 141 192 178 179 177 196 215 197 108 100
69 130 37 93 75 323 359 353 343 29 80 90 43 15 8 14 40 355 16 328 307 148 122 104 96 126 125 96 75 58 71 77 82 78 76 72 64 64 66 65 67 57 51 43 48 59 59 52 46 42 41 42 44 44 42 39 42 42 35 31 32 36 41 48 57 62 53 56 65 73 54 38 43 44 46 57 39 9 126 123 132 171 209 180 113 98
109 128 127 106 107 256 307 327 325 342 33 360 16 334 327 309 257 16 2 353 353 144 133 154 169 118 128 122 97 68 70 70 64 57 71 70 64 65 63 58 55 52 46 40 50 59 60 50 46 49 46 40 41 45 39 44 55 45 35 42 36 47 48 47 43 44 45 48 57 62 80 81 82 71 69 82 90 69 38 58 60 49 33 17 23 76
81 116 119 117 112 200 331 315 322 69 189 232 319 297 264 283 322 70 23 4 38 55 77 61 106 119 118 121 108 107 81 66 73 63 47 53 70 77 71 59 54 52 50 53 49 58 55 56 52 52 50 49 47 47 52 47 62 57 47 49 48 49 47 52 46 46 42 41 37 39 49 73 78 74 51 35 83 101 102 93 94 103 98 87 76 91
129 101 121 137 104 144 275 3 70 180 242 253 256 19 12 61 84 85 62 46 73 103 97 91 89 89 97 93 98 102 98 83 70 64 51 41 40 58 80 71 55 46 57 54 56 55 56 60 61 55 47 39 40 44 50 53 54 63 53 48 53 48 52 50 51 46 43 47 43 44 42 45 47 42 46 47 21 51 52 55 50 44 41 83 126 132
148 126 159 53 102 64 48 42 137 232 269 317 66 312 274 224 347 57 62 39 40 70 111 106 112 109 107 103 96 101 103 99 77 57 50 42 34 38 53 63 36 38 62 57 65 58 57 53 64 66 57 44 42 44 43 48 48 64 63 54 56 52 49 49 49 40 36 43 42 45 45 49 52 45 36 29 29 27 26 28 30 37 21 29 33 44
140 103 107 90 341 139 144 78 117 302 161 94 12 14 11 351 352 57 99 16 14 354 77 121 117 112 109 109 115 117 111 88 69 44 38 53 37 33 51 62 63 32 61 69 70 70 63 57 57 65 72 62 51 46 43 40 43 57 63 59 53 55 50 47 48 38 29 34 37 40 41 43 48 50 47 45 40 31 28 26 20 25 15 42 40 26
79 137 204 105 269 122 135 90 92 21 199 167 116 4 242 265 266 246 109 71 34 68 90 123 124 122 112 115 127 136 134 79 59 15 350 16 39 60 50 57 59 63 61 75 72 70 66 66 63 54 60 65 59 53 46 44 47 51 56 56 53 52 49 47 46 40 36 32 29 41 47 46 46 46 42 43 44 32 28 32 37 33 14 64 49 356
44 71 111 112 141 80 80 120 157 174 359 58 323 319 292 281 222 203 63 63 356 120 119 117 111 118 126 133 122 4 87 89 98 56 315 330 23 25 54 58 69 72 67 67 74 74 68 63 70 72 68 65 61 51 56 59 57 57 54 49 48 50 49 41 33 30 33 33 30 35 50 59 59 55 53 48 44 38 30 29 29 17 28 37 44 38
41 9 22 62 60 62 136 93 159 202 154 346 307 307 308 298 138 84 70 254 141 139 135 127 127 133 131 122 125 93 104 126 157 173 189 48 55 29 41 62 62 66 71 73 69 73 70 64 70 60 55 56 55 53 66 71 68 63 60 60 59 53 42 34 21 14 20 28 30 32 36 45 53 47 49 50 46 39 36 20 32 30 39 27 30 31
4 354 44 129 121 63 76 92 27 349 322 342 318 315 310 262 147 84 186 215 145 127 133 134 133 135 132 119 136 100 11 89 120 134 131 107 97 76 63 61 59 55 63 59 61 64 63 54 54 54 50 48 45 43 50 68 70 65 61 63 61 54 49 47 42 19 13 26 31 31 31 27 35 39 35 41 50 46 31 29 27 31 42 38 28 35
20 57 340 59 38 57 110 101 172 190 272 337 317 309 282 332 83 222 238 155 136 128 134 141 133 112 95 95 105 99 102 102 106 104 104 98 96 96 88 80 71 63 56 60 60 65 69 63 59 57 51 42 47 51 57 66 69 65 59 61 60 50 40 49 50 39 30 39 42 42 37 33 27 26 24 19 27 49 46 27 37 41 45 46 43 41
310 74 360 46 310 32 27 70 45 62 221 21 327 322 357 109 252 310 122 113 132 130 133 115 105 119 118 100 97 105 107 102 99 100 94 95 91 85 78 65 60 58 49 52 55 53 75 72 62 55 48 37 41 45 53 68 68 63 58 57 44 30 45 50 51 53 55 51 48 44 44 42 39 37 33 31 26 37 38 24 33 35 39 46 50 49
334 100 14 64 206 118 47 66 91 286 305 325 326 103 327 328 312 350 141 126 115 124 123 107 89 110 118 117 115 101 102 102 93 94 88 82 84 77 66 64 66 67 69 63 69 66 72 75 70 65 49 41 39 41 40 63 68 58 55 42 2 27 41 50 52 55 51 46 49 53 48 45 44 40 37 37 37 42 42 30 26 33 35 35 46 43
342 97 166 108 343 98 107 83 7 329 318 325 354 33 37 33 56 65 57 77 109 72 84 105 108 101 113 113 106 115 109 104 108 105 104 97 83 74 71 66 73 82 80 75 67 68 69 76 77 73 59 43 42 40 43 46 72 64 54 9 7 23 38 47 53 57 50 43 34 29 32 44 46 46 41 36 38 46 39 36 28 33 18 29 37 38
176 111 139 81 87 98 72 56 337 4 35 41 39 38 52 47 41 54 65 78 55 70 71 105 108 109 106 111 111 89 101 119 109 101 98 95 91 78 85 81 78 80 77 78 72 64 74 72 65 64 62 42 33 39 42 44 55 63 20 349 16 19 36 49 54 53 48 42 40 28 23 36 30 37 40 37 39 51 49 51 49 59 34 33 35 42
341 91 47 89 187 11 60 347 29 40 52 67 68 61 60 57 56 60 64 61 70 75 77 68 91 94 96 91 98 111 113 111 101 97 103 97 81 82 84 87 65 65 85 82 62 77 66 68 60 55 57 49 19 31 33 44 43 49 27 23 8 20 37 48 48 47 37 29 23 23 26 35 27 20 23 25 24 33 41 31 35 47 56 51 36 25
33 97 75 60 60 64 101 61 72 68 60 47 61 80 78 75 73 71 76 75 76 73 73 77 84 86 90 91 102 105 103 109 113 115 105 96 99 93 92 95 99 80 55 71 76 86 78 77 84 74 64 50 17 24 33 37 32 21 22 18 14 21 44 42 40 41 34 27 27 28 23 25 21 23 14 12 18 22 21 34 29 43 47 34 31 12
271 16 59 302 97 89 94 92 107 83 60 49 62 65 80 88 88 82 76 75 70 70 67 60 63 83 89 103 107 111 104 100 114 122 116 114 106 104 106 106 102 108 113 97 64 72 102 109 94 85 80 53 11 21 34 24 10 4 9 1 9 26 60 50 42 41 34 26 27 21 16 22 20 16 16 5 4 11 30 31 18 25 20 58 53 41
52 52 55 83 91 146 159 175 171 106 87 63 75 101 108 105 100 95 95 92 98 98 95 89 61 61 101 126 134 125 124 124 123 120 123 128 130 128 116 105 109 108 91 77 79 83 84 84 105 100 90 50 10 24 33 18 360 353 358 5 14 26 55 49 46 41 30 28 29 16 15 13 14 13 14 13 6 357 357 78 67 20 75 357 18 10
111 180 126 139 145 192 234 167 69 104 93 81 126 101 112 128 118 121 120 122 116 122 128 120 115 97 90 53 58 122 126 136 159 131 116 124 146 154 143 136 129 127 130 123 97 84 95 101 107 106 98 98 343 8 5 9 351 358 359 12 22 55 57 61 59 48 30 28 20 10 14 16 16 11 16 16 12 12 5 347 40 48 28 33 12 12